Location: Central Falls
(41.8900°N, 71.3929°W)
Time: 16:52:29
(UTC+00:00)

Vanguard 1 Rocket - Pass Details

Date: 11 December 2023
Orbit: 654 x 4218 km, 34.3° (Epoch: 25 February)

Event Time Altitude Azimuth Distance (km) Brightness Sun altitude
Rises 11:46:49 0° 271° (W) 8,096 11.7 -3.4°
Reaches altitude 10° 11:53:03 10° 269° (W) 6,695 11.3 -2.4°
Maximum altitude 12:11:58 58° 198° (SSW) 2,590 9.9 0.6°
Drops below altitude 10° 12:21:42 10° 121° (ESE) 3,657 13.1 2.1°
Sets 12:24:05 0° 117° (ESE) 4,325 13.6 2.5°
